DW8618 Nerja ES current weather conditions

sailwx.info

Wind from 166 at 2 knots gusting 6

Air temperature 24.4° C
Dewpoint 19.3° C

Last reported at 2015-Sep-05 13:45 UTC.
Time now 2015-Sep-05 14:19 UTC

Location: N 36°46' W 003°52'.
View on Google Maps.

See reports from other nearby stations

  
Tides and Currents Weather Stations Pressure Air Temp Water Temp Dewpoint Dewpoint Depression Visibility Wind Speed Wind Dir Waves Ship Positions
date/time (UTC)wind fromknots sea level pressurealtimeterstation pressurevisibilityair tempwater tempwave heightnotes
2015-Sep-05 13:45 166 2 gusting 6 24.4
2015-Sep-05 13:31 173 4 gusting 7 24.4
2015-Sep-05 13:15 156 4 gusting 8 24.4
2015-Sep-05 13:01 159 5 gusting 7 24.4
2015-Sep-05 12:45 172 3 gusting 6 24.4
2015-Sep-05 12:30 154 3 gusting 6 23.9
2015-Sep-05 12:16 167 2 gusting 6 23.9
2015-Sep-05 12:01 117 0 gusting 6 23.9
2015-Sep-05 11:45 165 2 gusting 6 23.3
2015-Sep-05 11:30 158 4 gusting 6 23.9
2015-Sep-05 11:16 180 0 gusting 6 23.3
2015-Sep-05 11:01 170 23.3
2015-Sep-05 10:46 159 0 gusting 5 23.3
2015-Sep-05 10:31 162 0 gusting 6 22.2
2015-Sep-05 10:15 190 22.8
2015-Sep-05 10:01 171 22.2
2015-Sep-05 09:46 182 22.2
2015-Sep-05 09:30 170 21.7
2015-Sep-05 09:16 183 1 gusting 5 21.1
2015-Sep-05 09:01 182 2 gusting 6 22.2
2015-Sep-05 08:47 098 4 gusting 8 23.9
2015-Sep-05 08:30 148 2 gusting 7 23.3
2015-Sep-05 08:15 153 22.8
2015-Sep-05 08:01 109 22.2
2015-Sep-05 07:45 167 22.2
2015-Sep-05 07:30 151 22.2
2015-Sep-05 07:16 355 21.7
2015-Sep-05 07:01 355 20.6
2015-Sep-05 06:45 040 20.0
2015-Sep-05 06:30 041 20.0
2015-Sep-05 06:15 042 20.0
2015-Sep-05 06:01 042 20.0
2015-Sep-05 05:45 042 20.0
2015-Sep-05 05:31 042 20.0
2015-Sep-05 05:16 005 19.4
2015-Sep-05 05:01 005 19.4
2015-Sep-05 04:46 005 19.4
2015-Sep-05 04:31 013 19.4
2015-Sep-05 04:15 013 18.9
2015-Sep-05 04:01 013 18.9
2015-Sep-05 03:46 072 18.9
2015-Sep-05 03:30 074 18.3
2015-Sep-05 03:15 074 18.3
2015-Sep-05 03:01 097 18.3
2015-Sep-05 02:46 118 18.3
2015-Sep-05 02:30 137 0 gusting 4 18.9
2015-Sep-05 02:15 209 18.9
2015-Sep-05 02:01 236 18.9
2015-Sep-05 01:45 250 18.9
2015-Sep-05 01:30 250 18.9
2015-Sep-05 01:15 250 19.4
2015-Sep-05 01:01 250 20.0
2015-Sep-05 00:45 250 20.0
2015-Sep-05 00:30 250 20.0
2015-Sep-05 00:15 250 20.0
2015-Sep-05 00:01 250 20.0
2015-Sep-04 23:46 250 19.4
2015-Sep-04 23:30 250 19.4
2015-Sep-04 23:15 250 20.0
2015-Sep-04 23:01 250 20.0
2015-Sep-04 22:45 250 20.0
2015-Sep-04 22:30 250 20.0
2015-Sep-04 22:16 250 20.0
2015-Sep-04 22:01 250 20.6
2015-Sep-04 21:46 250 20.6
2015-Sep-04 21:31 250 20.6
2015-Sep-04 21:15 250 20.6
2015-Sep-04 21:01 250 21.1
2015-Sep-04 20:46 139 21.1
2015-Sep-04 20:31 138 21.1
2015-Sep-04 20:15 138 21.1
2015-Sep-04 20:01 138 21.7
2015-Sep-04 19:46 132 21.7
2015-Sep-04 19:30 143 22.2
2015-Sep-04 19:15 132 22.8
2015-Sep-04 19:01 108 22.8
2015-Sep-04 18:45 174 23.3
2015-Sep-04 18:30 200 23.3
2015-Sep-04 18:15 206 23.3
2015-Sep-04 18:01 213 0 gusting 3 23.9
2015-Sep-04 17:46 246 0 gusting 4 24.4
2015-Sep-04 17:31 204 25.0
2015-Sep-04 17:15 256 0 gusting 7 25.6
2015-Sep-04 17:01 255 1 gusting 6 25.6
2015-Sep-04 16:45 269 25.6
2015-Sep-04 16:30 254 2 gusting 9 26.1
2015-Sep-04 16:15 241 0 gusting 6 26.1
2015-Sep-04 16:01 280 1 gusting 12 25.6
2015-Sep-04 15:45 234 2 gusting 9 26.1
2015-Sep-04 15:31 288 6 gusting 16 25.6
2015-Sep-04 15:15 285 6 gusting 16 25.6
2015-Sep-04 15:01 254 6 gusting 15 26.1
2015-Sep-04 14:46 233 3 gusting 14 25.6
2015-Sep-04 14:30 298 6 gusting 12 25.6
2015-Sep-04 14:15 286 6 gusting 21 25.6
2015-Sep-04 14:01 241 7 gusting 15 25.0
2015-Sep-04 13:45 207 6 gusting 16 25.6
2015-Sep-04 13:30 228 7 gusting 19 25.6
2015-Sep-04 13:16 244 5 gusting 15 25.6
2015-Sep-04 13:01 266 6 gusting 18 25.6
2015-Sep-04 12:46 227 3 gusting 13 25.6
2015-Sep-04 12:15 252 6 gusting 14 25.0
2015-Sep-04 12:01 205 4 gusting 9 24.4
2015-Sep-04 11:16 236 3 gusting 10 23.3
2015-Sep-04 11:01 248 3 gusting 7 23.3
2015-Sep-04 10:46 213 1 gusting 9 23.3
2015-Sep-04 10:30 183 5 gusting 9 22.8
2015-Sep-04 10:15 227 1 gusting 7 22.2
2015-Sep-04 10:01 205 0 gusting 7 21.7
2015-Sep-04 09:30 230 0 gusting 7 21.1
2015-Sep-04 09:16 232 0 gusting 6 21.7
2015-Sep-04 09:01 191 21.1
2015-Sep-04 08:46 204 20.6
2015-Sep-04 08:31 175 20.6
2015-Sep-04 08:15 172 20.6
2015-Sep-04 08:01 175 0 gusting 3 20.6
2015-Sep-04 07:45 171 20.6
2015-Sep-04 07:31 322 20.0
2015-Sep-04 07:15 322 20.0
2015-Sep-04 06:45 005 18.3
2015-Sep-04 06:30 005 18.9
2015-Sep-04 06:15 005 18.3
2015-Sep-04 06:01 347 17.8
2015-Sep-04 05:30 355 17.2
2015-Sep-04 05:15 011 17.2
2015-Sep-04 05:01 351 17.8
2015-Sep-04 04:45 360 17.8
2015-Sep-04 04:15 348 18.3
2015-Sep-04 03:45 005 18.3
2015-Sep-04 03:30 005 17.8
2015-Sep-04 03:16 360 18.3
2015-Sep-04 03:01 349 18.3
2015-Sep-04 02:45 005 18.3
2015-Sep-04 02:31 103 19.4
2015-Sep-04 02:01 102 19.4
2015-Sep-04 01:45 295 19.4
2015-Sep-04 01:31 295 19.4
2015-Sep-04 01:01 173 19.4
2015-Sep-04 00:45 173 19.4
2015-Sep-04 00:30 173 20.0
2015-Sep-04 00:16 173 20.0
2015-Sep-04 00:01 173 20.0
2015-Sep-03 23:45 173 20.6
2015-Sep-03 23:30 173 20.6
2015-Sep-03 23:01 348 21.1
2015-Sep-03 22:46 355 21.1
2015-Sep-03 22:30 355 21.7
2015-Sep-03 21:15 013 21.7
2015-Sep-03 21:01 013 22.2
2015-Sep-03 20:46 013 22.2
2015-Sep-03 20:30 103 22.8
2015-Sep-03 20:01 104 22.8
2015-Sep-03 19:45 103 22.8
2015-Sep-03 19:31 103 23.3
2015-Sep-03 19:15 101 23.3
2015-Sep-03 19:01 107 23.3
2015-Sep-03 18:45 196 23.3
2015-Sep-03 18:30 220 23.9
2015-Sep-03 18:16 223 23.9
2015-Sep-03 18:01 217 23.9
2015-Sep-03 17:30 246 25.0
2015-Sep-03 17:15 237 25.6
2015-Sep-03 17:01 247 0 gusting 6 26.1
2015-Sep-03 16:31 263 4 gusting 14 25.6
2015-Sep-03 16:15 271 4 gusting 13 26.1
2015-Sep-03 16:01 190 9 gusting 17 26.1
2015-Sep-03 15:45 296 5 gusting 15 25.6
2015-Sep-03 15:30 287 6 gusting 15 25.6
2015-Sep-03 15:15 267 5 gusting 18 26.1
2015-Sep-03 15:01 224 5 gusting 14 26.1
2015-Sep-03 14:46 209 3 gusting 18 26.1
2015-Sep-03 14:30 219 2 gusting 20 26.1
2015-Sep-03 14:15 250 4 gusting 17 26.1
2015-Sep-03 14:01 292 3 gusting 13 26.7